Погода в Приладожском

Россия / Санкт-Петербург и Ленинградская область     59°52′31″N   31°19′30″E
темп.,
°C
ветер,
м/с
пор.,
м/с
влажн.,
%
обл.,
%
осадки,
мм/ч
давл.,
гПа
погр.,
м
15 августа, пн
пн1500:00+18в33695 0.0 102144
03:00+17в22710 0.0 102131
06:00+17в22775 0.0 102137
09:00+20в22740 0.0 1021137
12:00+22св23670 0.0 1021419
15:00+22св34705 0.0 1020750
18:00+21ссв33745 0.0 1019112
21:00+21в227411 0.0 101913
16 августа, вт
вт1600:00+21ююв347494 0.0 101949
03:00+19ююв367769 0.0 102072
06:00+18юв36795 0.0 102092
09:00+21ююв34695 0.0 1020133
12:00+25ююв45554 0.0 1020396
15:00+26ююв34505 0.0 1019709
18:00+26ююв45505 0.0 1018395
21:00+22ююв336532 0.0 101919
17 августа, ср
ср1700:00+20ююв477212 0.0 101997
03:00+18ю377842 0.0 1019102
06:00+18ю478286 0.0 1019136
09:00+21ю3472100 0.0 1019139
12:00+23ююв346129 0.0 1019436
15:00+24ююз345797 0.0 1019518
18:00+24ю346069 0.0 1018322
21:00+21ююв347681 0.0 101945
18 августа, чт
чт1800:00+19ююв348057 0.0 101950
03:00+18ююв238126 0.0 101933
06:00+18ююв227975 0.0 101928
09:00+21юв22695 0.0 1019112
12:00+23св226236 0.0 1019392
15:00+22ссв4470100 0.0 1019221
18:00+22ссв45688 0.0 101978
21:00+21всв33735 0.0 101927
19 августа, пт
пт1900:00+20вюв22735 0.0 102012
03:00+19ююв22805 0.3 102014
06:00+19ююв22815 0.0 102021
09:00+21ююв23735 0.0 1021119
12:00+24вюв23647 0.0 1021387
15:00+24св34675 0.0 1020657
18:00+24св12655 0.2 1020487
21:00+22юв33665 0.3 102112